AD5L Weather Reports


Display with metric or nautical units.
time (UTC)temp
F
wind
direction
speed
MPH
gust
MPH
rain 1hr
in
rain 24hr
in
rain mn
in
humidity
%
barometer
mb
20260906102322 79 240 0.0 0.0 0.00 0.00 0.00 85 1012.7
20260906101332 80 240 0.0 0.0 0.00 0.00 0.00 84 1012.6
20260906100322 80 240 0.0 0.0 0.00 0.00 0.00 83 1012.5
20260906095332 80 240 0.0 1.0 0.00 0.00 0.00 82 1012.7
20260906094323 81 240 0.0 2.0 0.00 0.00 0.00 82 1012.6
20260906093333 81 229 1.0 3.0 0.00 0.00 0.00 82 1012.5
20260906092325 81 240 0.0 2.0 0.00 0.00 0.00 81 1012.6
20260906091335 81 254 0.0 3.0 0.00 0.00 0.00 81 1012.5
20260906090346 82 218 0.0 3.0 0.00 0.00 0.00 81 1012.5
20260906085337 82 241 0.0 2.0 0.00 0.00 0.00 81 1012.5
20260906084346 82 225 1.0 4.0 0.00 0.00 0.00 80 1012.5
20260906083327 82 150 1.0 4.0 0.00 0.00 0.00 80 1012.6
20260906082347 82 207 2.0 5.0 0.00 0.00 0.00 80 1012.5
20260906081329 83 127 1.0 6.0 0.00 0.00 0.00 80 1012.6
20260906080334 83 205 1.0 8.0 0.00 0.00 0.00 80 1012.6
20260906075324 83 238 2.0 5.0 0.00 0.00 0.00 80 1012.6
20260906074330 83 156 1.0 4.0 0.00 0.00 0.00 80 1012.9
20260906073340 83 184 3.0 6.0 0.00 0.00 0.00 80 1013.0
20260906072332 83 207 1.0 4.0 0.00 0.00 0.00 80 1013.1
20260906071322 83 208 1.0 3.0 0.00 0.00 0.00 80 1013.2
20260906070330 83 170 2.0 7.0 0.00 0.00 0.00 80 1013.3
20260906065340 83 154 2.0 5.0 0.00 0.00 0.00 80 1013.4
20260906064331 83 207 0.0 3.0 0.00 0.00 0.00 80 1013.4
20260906063338 83 146 1.0 4.0 0.00 0.00 0.00 80 1013.7
20260906062329 83 155 0.0 3.0 0.00 0.00 0.00 79 1013.5
20260906061340 83 141 1.0 4.0 0.00 0.00 0.00 79 1013.4
20260906060331 83 146 1.0 3.0 0.00 0.00 0.00 79 1013.5
20260906055323 83 161 0.0 1.0 0.00 0.00 0.00 79 1013.9
20260906054332 83 161 0.0 3.0 0.00 0.00 0.00 79 1013.8
20260906053342 83 153 0.0 3.0 0.00 0.00 0.00 78 1013.6
20260906052333 83 153 0.0 2.0 0.00 0.00 0.00 78 1013.7
20260906051344 83 119 0.0 2.0 0.00 0.00 0.00 78 1013.8
20260906050326 83 155 2.0 6.0 0.00 0.00 0.00 78 1013.8
20260906045346 84 139 2.0 6.0 0.00 0.00 0.00 77 1014.0
20260906044328 83 101 2.0 5.0 0.00 0.00 0.00 77 1014.0
20260906043339 84 141 1.0 5.0 0.00 0.00 0.00 76 1013.9
20260906042329 84 139 1.0 6.0 0.00 0.00 0.00 76 1013.8
20260906041340 84 123 1.0 4.0 0.00 0.00 0.00 75 1013.7
20260906040332 84 104 1.0 6.0 0.00 0.00 0.00 74 1013.5
20260906035322 85 92 1.0 5.0 0.00 0.00 0.00 73 1013.7
20260906034332 85 118 1.0 6.0 0.00 0.00 0.00 72 1013.7
20260906033323 85 113 4.0 11.0 0.00 0.00 0.00 71 1013.5
20260906032330 86 79 3.0 8.0 0.00 0.00 0.00 70 1013.7
20260906031340 86 99 4.0 8.0 0.00 0.00 0.00 70 1013.6
20260906030332 86 76 4.0 10.0 0.00 0.00 0.00 69 1013.4
20260906025342 87 63 5.0 10.0 0.00 0.00 0.00 67 1013.2
20260906024333 87 109 6.0 11.0 0.00 0.00 0.00 65 1012.9
20260906023343 88 77 3.0 11.0 0.00 0.00 0.00 63 1012.7
20260906022325 88 83 4.0 10.0 0.00 0.00 0.00 62 1012.6
20260906021346 88 116 4.0 10.0 0.00 0.00 0.00 61 1012.4
20260906020325 89 98 5.0 13.0 0.00 0.00 0.00 61 1012.3
20260906015345 89 86 7.0 11.0 0.00 0.00 0.00 61 1012.1
20260906014327 90 84 3.0 13.0 0.00 0.00 0.00 60 1011.9
20260906013337 90 65 4.0 11.0 0.00 0.00 0.00 59 1011.8
20260906012328 91 77 5.0 11.0 0.00 0.00 0.00 59 1011.7
20260906011339 91 93 5.0 10.0 0.00 0.00 0.00 59 1011.6
20260906010330 92 73 4.0 15.0 0.00 0.00 0.00 58 1011.6
20260906005341 92 91 6.0 12.0 0.00 0.00 0.00 57 1011.5
20260906004332 93 79 5.0 12.0 0.00 0.00 0.00 57 1011.6
20260906003321 94 75 4.0 12.0 0.00 0.00 0.00 56 1011.6
20260906002332 94 96 8.0 16.0 0.00 0.00 0.00 56 1011.3
20260906001323 95 75 7.0 14.0 0.00 0.00 0.00 54 1011.3
20260906000334 95 71 6.0 10.0 0.00 0.00 0.00 54 1011.4
20260905235325 95 59 7.0 14.0 0.00 0.00 0.00 53 1011.3
20260905234336 98 68 5.0 9.0 0.00 0.00 0.00 48 1011.1
20260905233347 99 135 1.0 5.0 0.00 0.00 0.00 45 1011.0
20260905232338 99 141 4.0 9.0 0.00 0.00 0.00 44 1011.1
20260905231346 98 111 2.0 7.0 0.00 0.00 0.00 44 1011.0
20260905230327 97 72 3.0 6.0 0.00 0.00 0.00 45 1011.0
20260905225347 98 71 5.0 9.0 0.00 0.00 0.00 46 1011.0
20260905224329 98 77 5.0 9.0 0.00 0.00 0.00 45 1011.0
20260905223336 100 63 3.0 8.0 0.00 0.00 0.00 43 1011.0
20260905222327 100 132 0.0 4.0 0.00 0.00 0.00 43 1011.1
20260905221338 99 150 1.0 5.0 0.00 0.00 0.00 44 1011.2
20260905220329 99 68 1.0 6.0 0.00 0.00 0.00 44 1011.2
20260905215340 98 102 3.0 8.0 0.00 0.00 0.00 46 1011.3
20260905214332 99 206 1.0 6.0 0.00 0.00 0.00 45 1011.3
20260905213322 99 162 3.0 8.0 0.00 0.00 0.00 45 1011.4
20260905212333 98 90 2.0 7.0 0.00 0.00 0.00 46 1011.7
20260905211323 99 106 3.0 9.0 0.00 0.00 0.00 46 1011.6
20260905210334 99 126 2.0 5.0 0.00 0.00 0.00 45 1011.7
20260905205325 97 87 3.0 7.0 0.00 0.00 0.00 48 1011.9
20260905204336 97 59 3.0 7.0 0.00 0.00 0.00 48 1012.1
20260905203344 97 98 2.0 8.0 0.00 0.00 0.00 48 1012.3
20260905202335 98 123 6.0 11.0 0.00 0.00 0.00 45 1012.4
20260905201345 96 110 2.0 6.0 0.00 0.00 0.00 49 1012.5
20260905200327 96 34 2.0 6.0 0.00 0.00 0.00 50 1012.6
20260905195346 96 68 4.0 7.0 0.00 0.00 0.00 46 1012.8
20260905194328 96 233 2.0 11.0 0.00 0.00 0.00 47 1013.1
20260905193338 96 92 0.0 5.0 0.00 0.00 0.00 51 1013.1
20260905192329 95 155 2.0 5.0 0.00 0.00 0.00 50 1013.3
20260905191340 96 115 3.0 8.0 0.00 0.00 0.00 50 1013.5
20260905190330 96 107 3.0 5.0 0.00 0.00 0.00 51 1013.7
20260905185337 96 253 2.0 10.0 0.00 0.00 0.00 51 1013.9
20260905184328 96 179 2.0 11.0 0.00 0.00 0.00 52 1014.0
20260905183339 96 168 4.0 10.0 0.00 0.00 0.00 51 1014.2
20260905182329 96 144 3.0 7.0 0.00 0.00 0.00 52 1014.4
20260905181340 96 235 3.0 7.0 0.00 0.00 0.00 52 1014.5
20260905180330 94 152 3.0 7.0 0.00 0.00 0.00 56 1014.8
20260905175341 95 275 1.0 7.0 0.00 0.00 0.00 53 1015.0
20260905174333 94 139 4.0 9.0 0.00 0.00 0.00 54 1015.1
20260905173342 94 161 5.0 8.0 0.00 0.00 0.00 55 1015.3
20260905172333 92 113 1.0 7.0 0.00 0.00 0.00 60 1015.3
20260905171345 92 219 3.0 7.0 0.00 0.00 0.00 60 1015.4
20260905170326 92 94 4.0 8.0 0.00 0.00 0.00 61 1015.4
20260905165347 93 241 2.0 10.0 0.00 0.00 0.00 60 1015.6
20260905164328 93 207 2.0 6.0 0.00 0.00 0.00 62 1015.7
20260905163339 91 240 2.0 8.0 0.00 0.00 0.00 63 1015.7
20260905162330 91 233 3.0 8.0 0.00 0.00 0.00 64 1015.8
20260905161341 91 194 2.0 8.0 0.00 0.00 0.00 65 1015.9
20260905160332 91 210 1.0 12.0 0.00 0.00 0.00 66 1015.5
20260905155322 90 140 2.0 7.0 0.00 0.00 0.00 67 1015.6
20260905154334 89 214 3.0 8.0 0.00 0.00 0.00 69 1015.6
20260905153325 89 212 2.0 8.0 0.00 0.00 0.00 69 1015.7
20260905152335 89 233 1.0 6.0 0.00 0.00 0.00 71 1015.7
20260905144336 86 183 2.0 5.0 0.00 0.00 0.00 80 1015.6
20260905143327 85 112 4.0 8.0 0.00 0.00 0.00 81 1015.6
20260905142338 84 276 2.0 6.0 0.00 0.00 0.00 84 1015.7
20260905141328 83 165 0.0 4.0 0.00 0.00 0.00 87 1015.5
20260905140340 82 207 1.0 5.0 0.00 0.00 0.00 88 1015.4
20260905135330 82 205 2.0 5.0 0.00 0.02 0.00 88 1015.4
20260905134340 83 127 1.0 4.0 0.00 0.02 0.00 88 1015.3
20260905133330 83 140 0.0 3.0 0.00 0.02 0.00 89 1015.2
20260905132341 81 145 0.0 1.0 0.00 0.02 0.00 90 1015.1
20260905131332 80 145 0.0 1.0 0.00 0.02 0.00 91 1015.0
20260905130342 79 146 0.0 1.0 0.00 0.02 0.00 92 1014.8
20260905125325 78 145 0.0 0.0 0.00 0.07 0.00 93 1014.8
20260905124344 78 145 0.0 0.0 0.00 0.07 0.00 94 1014.7
20260905123326 76 145 0.0 1.0 0.00 0.07 0.00 96 1014.5
20260905122333 75 145 0.0 0.0 0.00 0.07 0.00 97 1014.5
20260905121323 75 145 0.0 0.0 0.00 0.07 0.00 97 1014.4
20260905120334 75 145 0.0 0.0 0.00 0.07 0.00 97 1014.3
20260905115324 75 145 0.0 1.0 0.00 0.07 0.00 97 1014.1
20260905114335 75 145 0.0 0.0 0.00 0.07 0.00 97 1014.1
20260905113326 75 145 0.0 1.0 0.00 0.07 0.00 97 1014.0
20260905112336 75 145 0.0 0.0 0.00 0.07 0.00 97 1014.0
20260905111327 76 145 0.0 0.0 0.00 0.07 0.00 96 1013.8
20260905110337 76 145 0.0 0.0 0.00 0.07 0.00 96 1013.9
20260905105328 76 145 0.0 0.0 0.00 0.07 0.00 96 1013.9
20260905104339 76 145 0.0 0.0 0.00 0.07 0.00 95 1013.8
20260905103329 76 145 0.0 0.0 0.00 0.07 0.00 95 1013.9